Melbourne Airport, Australia

7:24 PM AEST on April 27, 2017 (GMT +1000)
Melbourne International

Weather History for YMML - January, 2013

Change the Weather History Date:

Monday, January 7, 2013

  Actual Average Record
Temperature  
Mean Temperature 75 °F -  
Max Temperature 93 °F 77 °F 102 °F (2015)
Min Temperature 57 °F 55 °F 48 °F (2005)
Cooling Degree Days 10    
Growing Degree Days 25 (Base 50)    
Moisture  
Dew Point 58 °F    
Average Humidity 62    
Maximum Humidity 100    
Minimum Humidity 20    
Precipitation  
Precipitation 0.00 in 0.06 in - ()
Sea Level Pressure  
Sea Level Pressure 29.96 in    
Wind  
Wind Speed 9 mph ()    
Max Wind Speed 16 mph    
Max Gust Speed -    
Visibility 8.3 miles    
Events      
Averages and records for this station are not official NWS values.
T = Trace of Precipitation, MM = Missing Value Source: Averaged Metar Reports

Daily Weather History Graph

Daily Weather History Graph

Search for Another Location

Airport or City:

Trip Planner

Search our weather history database for the weather conditions in past years. The results will help you decide how hot, cold, wet, or windy it might be!

Date:

Astronomy

Jan. 07, 2013 Rise Set
Actual Time 6:07 AM AEDT 8:45 PM AEDT
Civil Twilight 5:36 AM AEDT 9:16 PM AEDT
Nautical Twilight 4:58 AM AEDT 9:54 PM AEDT
Astronomical Twilight 4:15 AM AEDT 10:37 PM AEDT
Moon 1:37 AM AEDT (1/7) 3:49 PM AEDT (1/7)
Length of Visible Light 15h 39m
Length of Day
14h 38m
Waning Crescent, 30% of the Moon is Illuminated
Jan 7
Waning Crescent
Jan 12
New
Jan 19
First Quarter
Jan 27
Full
Feb 4
Last Quarter

Hourly Weather History & Observations

Time (AEDT) Temp. Heat Index Dew Point Humidity Pressure Visibility Wind Dir Wind Speed Gust Speed Precip Events Conditions
12:00 AM 64 °F - 59 °F 79% 30.16 in 12 mi SW 11.5 mph - -   Haze
12:00 AM 64.4 °F - 59.0 °F 83% 30.15 in - SW 11.5 mph - N/A   Clear
12:30 AM 60.8 °F - 57.2 °F 88% 30.15 in - WSW 10.4 mph - N/A   Clear
1:00 AM 60.8 °F - 57.2 °F 88% 30.15 in - WSW 10.4 mph - N/A   Clear
1:30 AM 59.0 °F - 57.2 °F 94% 30.12 in - WSW 10.4 mph - N/A   Clear
2:00 AM 60 °F - 57 °F 87% 30.12 in - SW 11.5 mph - -  
2:00 AM 59.0 °F - 57.2 °F 94% 30.12 in - SW 11.5 mph - N/A   Clear
2:30 AM 59.0 °F - 57.2 °F 94% 30.09 in - WSW 10.4 mph - N/A   Clear
3:00 AM 58 °F - 56 °F 92% 30.10 in 11 mi West 9.2 mph - -   Haze
3:00 AM 57.2 °F - 57.2 °F 100% 30.09 in - West 9.2 mph - N/A   Clear
3:30 AM 59.0 °F - 55.4 °F 88% 30.09 in - West 10.4 mph - N/A   Clear
4:00 AM 59.0 °F - 55.4 °F 88% 30.06 in - West 10.4 mph - N/A   Clear
4:30 AM 57.2 °F - 57.2 °F 100% 30.06 in 6.2 mi West 10.4 mph - N/A   Scattered Clouds
5:00 AM 60 °F - 57 °F 85% 30.07 in - West 10.4 mph - -  
5:00 AM 59.0 °F - 57.2 °F 94% 30.06 in 6.2 mi West 10.4 mph - N/A   Mostly Cloudy
5:30 AM 60.8 °F - 57.2 °F 88% 30.06 in 6.2 mi West 10.4 mph - N/A   Mostly Cloudy
6:00 AM 60 °F - 57 °F 86% 30.08 in 9 mi WSW 10.4 mph - -   Haze
6:00 AM 60.8 °F - 57.2 °F 88% 30.06 in 6.2 mi WSW 10.4 mph - N/A   Scattered Clouds
6:30 AM 60.8 °F - 57.2 °F 88% 30.09 in 6.2 mi West 9.2 mph - N/A   Mostly Cloudy
7:00 AM 60.8 °F - 57.2 °F 88% 30.09 in 6.2 mi West 9.2 mph - N/A   Overcast
7:30 AM 60.8 °F - 57.2 °F 88% 30.09 in 6.2 mi West 8.1 mph - N/A   Overcast
8:00 AM 63 °F - 57 °F 76% 30.09 in - WSW 9.2 mph - -  
8:00 AM 62.6 °F - 57.2 °F 82% 30.09 in 6.2 mi WSW 9.2 mph - N/A   Mostly Cloudy
8:30 AM 64.4 °F - 57.2 °F 77% 30.09 in 6.2 mi WSW 8.1 mph - N/A   Mostly Cloudy
9:00 AM 66 °F - 57 °F 65% 30.08 in 9 mi WSW 8.1 mph - -   Haze
9:00 AM 66.2 °F - 57.2 °F 73% 30.09 in 6.2 mi WSW 8.1 mph - N/A   Scattered Clouds
9:30 AM 68.0 °F - 57.2 °F 68% 30.06 in 6.2 mi WSW 6.9 mph - N/A   Partly Cloudy
10:00 AM 69.8 °F - 57.2 °F 64% 30.06 in - SSW 5.8 mph - N/A   Clear
10:30 AM 71.6 °F - 57.2 °F 60% 30.04 in - South 5.8 mph - N/A   Clear
11:00 AM 74 °F - 56 °F 44% 30.03 in - SE 5.8 mph - -  
11:00 AM 73.4 °F - 57.2 °F 57% 30.04 in - SE 5.8 mph - N/A   Clear
11:30 AM 78.8 °F - 57.2 °F 47% 30.01 in - NW 5.8 mph - N/A   Clear
12:00 PM 80.6 °F 80.8 °F 57.2 °F 45% 30.01 in - South 4.6 mph - N/A   Clear
12:30 PM 82.4 °F 82.0 °F 57.2 °F 42% 29.98 in - South 5.8 mph - N/A   Clear
1:00 PM 86.0 °F 84.5 °F 55.4 °F 35% 29.95 in - East 5.8 mph - N/A   Clear
1:30 PM 89.6 °F 88.1 °F 57.2 °F 33% 29.92 in - SE 8.1 mph - N/A   Clear
2:00 PM 92 °F - 56 °F 20% 29.89 in - SSE 8.1 mph - -  
2:00 PM 91.4 °F 89.9 °F 57.2 °F 31% 29.89 in - SSE 8.1 mph - N/A   Clear
2:30 PM 93.2 °F 92.6 °F 59.0 °F 32% 29.86 in - SSE 16.1 mph - N/A   Clear
3:00 PM 90 °F - 59 °F 25% 29.85 in 12 mi South 16.1 mph - -   Haze
3:00 PM 89.6 °F 88.9 °F 59.0 °F 36% 29.86 in - South 16.1 mph - N/A   Clear
3:30 PM 89.6 °F 88.9 °F 59.0 °F 36% 29.83 in - South 15.0 mph - N/A   Clear
4:00 PM 89.6 °F 88.9 °F 59.0 °F 36% 29.83 in - SSW 12.7 mph - N/A   Clear
4:30 PM 89.6 °F 88.1 °F 57.2 °F 33% 29.83 in - SSE 13.8 mph - N/A   Clear
5:00 PM 90 °F - 56 °F 22% 29.81 in - South 10.4 mph - -  
5:00 PM 89.6 °F 88.1 °F 57.2 °F 33% 29.80 in - South 10.4 mph - N/A   Clear
5:30 PM 89.6 °F 87.7 °F 55.4 °F 31% 29.80 in - South 11.5 mph - N/A   Clear
6:00 PM 89 °F - 57 °F 24% 29.79 in 16 mi South 12.7 mph - -   Haze
6:00 PM 87.8 °F 86.5 °F 57.2 °F 35% 29.80 in - South 12.7 mph - N/A   Clear
6:30 PM 87.8 °F 86.5 °F 57.2 °F 35% 29.77 in - South 11.5 mph - N/A   Clear
7:00 PM 86.0 °F 84.9 °F 57.2 °F 37% 29.77 in - SSW 11.5 mph - N/A   Clear
7:30 PM 82.4 °F 82.9 °F 60.8 °F 48% 29.80 in - South 13.8 mph - N/A   Clear
8:00 PM 80 °F - 60 °F 39% 29.80 in - SSW 10.4 mph - -  
8:00 PM 80.6 °F 81.1 °F 59.0 °F 48% 29.80 in - SSW 10.4 mph - N/A   Clear
8:30 PM 78.8 °F - 60.8 °F 54% 29.80 in - SW 3.5 mph - N/A   Clear
9:00 PM 77 °F - 60 °F 46% 29.79 in 12 mi Calm Calm - -   Haze
9:00 PM 77.0 °F - 60.8 °F 57% 29.80 in - Calm Calm - N/A   Clear
9:30 PM 75.2 °F - 60.8 °F 61% 29.77 in - North 5.8 mph - N/A   Clear
10:00 PM 71.6 °F - 60.8 °F 69% 29.77 in - WSW 5.8 mph - N/A   Clear
10:30 PM 71.6 °F - 60.8 °F 69% 29.77 in - SSW 5.8 mph - N/A   Clear
11:00 PM 72 °F - 60 °F 58% 29.78 in - SSW 3.5 mph - -  
11:00 PM 71.6 °F - 60.8 °F 69% 29.77 in - SSW 3.5 mph - N/A   Clear
11:30 PM 69.8 °F - 60.8 °F 73% 29.77 in - SW 5.8 mph - N/A   Clear